�������l�o���
Date,Time,MP-1(��Sv/h),MP-2(��Sv/h),MP-3(��Sv/h),MP-4(��Sv/h),MP-5(��Sv/h),MP-6(��Sv/h),MP-7(��Sv/h),MP-8(��Sv/h),����,����(m/s),���J
2023/03/20,00:00,0.551,0.805,0.489,1.011,0.705,0.319,0.571,0.545,���쐼,6.4,��
2023/03/20,00:10,0.554,0.804,0.490,1.011,0.704,0.318,0.574,0.545,���쐼,7.7,��
2023/03/20,00:20,0.554,0.806,0.490,1.010,0.706,0.318,0.575,0.546,���쐼,9.8,��
2023/03/20,00:30,0.552,0.806,0.491,1.010,0.705,0.317,0.573,0.545,���쐼,10.5,��
2023/03/20,00:40,0.553,0.807,0.491,1.012,0.704,0.317,0.572,0.545,��,10.5,��
2023/03/20,00:50,0.554,0.804,0.490,1.011,0.703,0.318,0.574,0.545,��,9.7,��
2023/03/20,01:00,0.552,0.806,0.491,1.010,0.704,0.318,0.574,0.546,��,7.9,��
2023/03/20,01:10,0.554,0.806,0.490,1.010,0.706,0.317,0.575,0.545,���쐼,7.6,��
2023/03/20,01:20,0.552,0.805,0.490,1.009,0.705,0.317,0.574,0.545,���쐼,6.3,��
2023/03/20,01:30,0.552,0.806,0.491,1.011,0.704,0.318,0.573,0.545,���쐼,5.6,��
2023/03/20,01:40,0.554,0.807,0.490,1.011,0.706,0.318,0.572,0.548,���쐼,5.7,��
2023/03/20,01:50,0.554,0.804,0.491,1.007,0.702,0.317,0.573,0.547,���쐼,5.8,��
2023/03/20,02:00,0.554,0.806,0.491,1.008,0.705,0.318,0.572,0.545,���쐼,5.7,��
2023/03/20,02:10,0.554,0.806,0.490,1.010,0.705,0.318,0.574,0.546,���쐼,5.1,��
2023/03/20,02:20,0.553,0.806,0.490,1.011,0.706,0.317,0.573,0.545,���쐼,4.0,��
2023/03/20,02:30,0.556,0.806,0.491,1.010,0.705,0.316,0.574,0.545,���쐼,3.0,��
2023/03/20,02:40,0.554,0.806,0.491,1.012,0.705,0.318,0.574,0.546,��쐼,1.8,��
2023/03/20,02:50,0.554,0.805,0.489,1.010,0.704,0.318,0.573,0.546,�쐼,2.5,��
2023/03/20,03:00,0.553,0.805,0.490,1.010,0.706,0.317,0.574,0.546,���쐼,3.7,��
2023/03/20,03:10,0.553,0.806,0.492,1.010,0.705,0.316,0.573,0.545,���쐼,3.8,��
2023/03/20,03:20,0.554,0.806,0.490,1.011,0.704,0.318,0.572,0.545,��,3.2,��
2023/03/20,03:30,0.554,0.805,0.489,1.009,0.705,0.317,0.574,0.546,���쐼,2.5,��
2023/03/20,03:40,0.554,0.804,0.490,1.011,0.704,0.319,0.573,0.546,���쐼,1.7,��
2023/03/20,03:50,0.553,0.806,0.489,1.012,0.703,0.318,0.573,0.546,���쐼,2.3,��
2023/03/20,04:00,0.553,0.804,0.489,1.011,0.704,0.317,0.573,0.546,��,3.8,��
2023/03/20,04:10,0.552,0.806,0.489,1.010,0.706,0.318,0.573,0.545,��,4.6,��
2023/03/20,04:20,0.551,0.807,0.490,1.011,0.706,0.317,0.571,0.544,��,4.6,��
2023/03/20,04:30,0.553,0.806,0.490,1.009,0.704,0.316,0.572,0.546,���쐼,2.9,��
2023/03/20,04:40,0.552,0.804,0.490,1.012,0.704,0.317,0.572,0.545,�쐼,2.5,��
2023/03/20,04:50,0.553,0.806,0.491,1.010,0.703,0.317,0.571,0.545,���쐼,2.0,��
2023/03/20,05:00,0.553,0.805,0.488,1.010,0.703,0.317,0.572,0.546,��,2.3,��
2023/03/20,05:10,0.552,0.806,0.490,1.009,0.704,0.317,0.572,0.546,���k��,2.8,��
2023/03/20,05:20,0.552,0.806,0.488,1.010,0.707,0.318,0.573,0.547,��,2.3,��
2023/03/20,05:30,0.552,0.804,0.490,1.010,0.705,0.316,0.572,0.545,��,2.6,��
2023/03/20,05:40,0.552,0.806,0.488,1.009,0.704,0.317,0.573,0.546,��,2.8,��
2023/03/20,05:50,0.552,0.805,0.488,1.012,0.703,0.316,0.573,0.544,���k��,2.5,��
2023/03/20,06:00,0.554,0.806,0.490,1.011,0.703,0.318,0.572,0.546,��,3.6,��
2023/03/20,06:10,0.552,0.806,0.489,1.011,0.704,0.316,0.571,0.545,��,3.9,��
2023/03/20,06:20,0.552,0.807,0.491,1.012,0.703,0.316,0.572,0.544,��,3.7,��
2023/03/20,06:30,0.551,0.808,0.490,1.010,0.703,0.318,0.572,0.546,���쐼,2.3,��
2023/03/20,06:40,0.552,0.805,0.489,1.012,0.704,0.318,0.572,0.545,���쐼,2.3,��
2023/03/20,06:50,0.553,0.806,0.489,1.011,0.705,0.317,0.571,0.544,�쐼,1.5,��
2023/03/20,07:00,0.553,0.808,0.490,1.010,0.705,0.317,0.573,0.547,�쐼,1.5,��
2023/03/20,07:10,0.553,0.806,0.490,1.013,0.704,0.316,0.572,0.544,���쐼,1.5,��
2023/03/20,07:20,0.553,0.807,0.491,1.010,0.704,0.318,0.574,0.546,�쐼,1.9,��
2023/03/20,07:30,0.552,0.807,0.490,1.012,0.706,0.318,0.573,0.546,�쐼,2.0,��
2023/03/20,07:40,0.553,0.807,0.491,1.012,0.706,0.317,0.573,0.546,��쐼,1.5,��
2023/03/20,07:50,0.554,0.807,0.490,1.010,0.706,0.318,0.574,0.545,��쐼,3.1,��
2023/03/20,08:00,0.555,0.807,0.490,1.013,0.705,0.319,0.575,0.545,�쐼,3.5,��
2023/03/20,08:10,0.556,0.810,0.492,1.010,0.705,0.317,0.576,0.548,���쐼,2.8,��
2023/03/20,08:20,0.556,0.806,0.491,1.013,0.705,0.317,0.576,0.545,�쓌,1.2,��
2023/03/20,08:30,0.555,0.805,0.492,1.013,0.706,0.317,0.574,0.546,��,2.0,��
2023/03/20,08:40,0.555,0.806,0.491,1.011,0.707,0.318,0.572,0.546,��,1.5,��
2023/03/20,08:50,0.556,0.806,0.491,1.010,0.707,0.318,0.572,0.548,�쐼,1.9,��
2023/03/20,09:00,0.556,0.805,0.493,1.012,0.704,0.317,0.572,0.546,�쐼,2.0,��
2023/03/20,09:10,0.555,0.806,0.492,1.012,0.706,0.319,0.573,0.546,�쐼,2.2,��
2023/03/20,09:20,0.555,0.806,0.492,1.012,0.707,0.319,0.572,0.545,��쓌,2.8,��
2023/03/20,09:30,0.556,0.806,0.493,1.013,0.707,0.318,0.573,0.546,��쓌,3.4,��
2023/03/20,09:40,0.558,0.808,0.492,1.012,0.709,0.319,0.572,0.547,�쓌,3.0,��
2023/03/20,09:50,0.555,0.806,0.493,1.012,0.708,0.318,0.572,0.544,�쓌,2.9,��
2023/03/20,10:00,0.557,0.806,0.491,1.011,0.708,0.319,0.574,0.544,�쓌,3.4,��
2023/03/20,10:10,0.556,0.809,0.494,1.011,0.708,0.318,0.573,0.543,���쓌,3.1,��
2023/03/20,10:20,0.555,0.807,0.493,1.013,0.705,0.317,0.574,0.544,���쓌,3.8,��
2023/03/20,10:30,0.555,0.807,0.493,1.014,0.708,0.318,0.574,0.544,���쓌,3.8,��
2023/03/20,10:40,0.557,0.808,0.492,1.014,0.706,0.318,0.572,0.543,���쓌,3.6,��
2023/03/20,10:50,0.556,0.808,0.494,1.013,0.707,0.317,0.575,0.545,���쓌,4.0,��
2023/03/20,11:00,0.556,0.809,0.493,1.014,0.709,0.317,0.575,0.544,��,2.9,��
2023/03/20,11:10,0.555,0.807,0.492,1.016,0.707,0.317,0.572,0.545,���k��,2.6,��
2023/03/20,11:20,0.553,0.808,0.493,1.013,0.707,0.317,0.574,0.544,�쓌,4.6,��
2023/03/20,11:30,0.556,0.807,0.494,1.015,0.709,0.319,0.573,0.546,���쓌,4.5,��
2023/03/20,11:40,0.557,0.809,0.493,1.015,0.709,0.318,0.575,0.544,��쓌,6.8,��
2023/03/20,11:50,0.557,0.810,0.492,1.014,0.708,0.318,0.575,0.544,��쓌,8.5,��
2023/03/20,12:00,0.557,0.808,0.493,1.014,0.710,0.317,0.575,0.544,��쓌,9.0,��
2023/03/20,12:10,0.555,0.809,0.492,1.014,0.709,0.319,0.575,0.544,��쓌,8.8,��
2023/03/20,12:20,0.555,0.810,0.494,1.012,0.709,0.318,0.575,0.544,��쓌,7.7,��
2023/03/20,12:30,0.556,0.811,0.492,1.015,0.709,0.320,0.576,0.543,��쓌,7.3,��
2023/03/20,12:40,0.558,0.810,0.494,1.016,0.708,0.320,0.575,0.545,��쓌,8.2,��
2023/03/20,12:50,0.556,0.809,0.492,1.016,0.708,0.320,0.574,0.545,��쓌,9.6,��
2023/03/20,13:00,0.558,0.809,0.492,1.015,0.709,0.318,0.575,0.544,��쓌,11.3,��
2023/03/20,13:10,0.557,0.810,0.494,1.014,0.710,0.320,0.575,0.546,��쓌,10.7,��
2023/03/20,13:20,0.557,0.811,0.492,1.015,0.709,0.318,0.575,0.546,��쓌,9.8,��
2023/03/20,13:30,0.558,0.810,0.492,1.015,0.708,0.318,0.576,0.546,��쓌,11.3,��
2023/03/20,13:40,0.557,0.812,0.493,1.015,0.710,0.318,0.576,0.546,��쓌,10.8,��
2023/03/20,13:50,0.559,0.810,0.493,1.017,0.709,0.319,0.573,0.545,��쓌,10.8,��
2023/03/20,14:00,0.558,0.811,0.491,1.017,0.711,0.320,0.576,0.547,��쓌,10.5,��
2023/03/20,14:10,0.558,0.810,0.493,1.016,0.712,0.319,0.574,0.546,��쓌,12.2,��
2023/03/20,14:20,0.559,0.813,0.491,1.016,0.712,0.319,0.575,0.545,��쓌,10.5,��
2023/03/20,14:30,0.558,0.811,0.492,1.016,0.711,0.320,0.576,0.545,��쓌,12.7,��
2023/03/20,14:40,0.558,0.810,0.492,1.015,0.712,0.319,0.575,0.547,��쓌,10.8,��
2023/03/20,14:50,0.560,0.813,0.493,1.015,0.711,0.318,0.574,0.546,��쓌,10.9,��
2023/03/20,15:00,0.562,0.810,0.493,1.016,0.713,0.319,0.576,0.547,��쓌,11.0,��
2023/03/20,15:10,0.559,0.812,0.493,1.016,0.711,0.320,0.577,0.545,��쓌,10.8,��
2023/03/20,15:20,0.560,0.811,0.492,1.017,0.711,0.317,0.576,0.546,��쓌,11.6,��
2023/03/20,15:30,0.559,0.810,0.493,1.017,0.711,0.318,0.577,0.546,��쓌,10.3,��
2023/03/20,15:40,0.559,0.813,0.493,1.017,0.712,0.320,0.576,0.544,��쓌,10.8,��
2023/03/20,15:50,0.557,0.813,0.492,1.016,0.713,0.320,0.575,0.546,��쓌,9.0,��
2023/03/20,16:00,0.559,0.812,0.493,1.016,0.713,0.320,0.575,0.547,��,10.3,��
2023/03/20,16:10,0.559,0.812,0.492,1.016,0.713,0.319,0.576,0.545,��쓌,12.5,��
2023/03/20,16:20,0.559,0.811,0.493,1.017,0.712,0.320,0.576,0.547,��쓌,11.9,��
2023/03/20,16:30,0.558,0.813,0.493,1.019,0.712,0.320,0.576,0.547,��쓌,10.8,��
2023/03/20,16:40,0.557,0.813,0.492,1.017,0.712,0.320,0.575,0.546,��쓌,12.4,��
2023/03/20,16:50,0.558,0.811,0.492,1.018,0.711,0.320,0.576,0.546,��쓌,11.9,��
2023/03/20,17:00,0.559,0.814,0.494,1.016,0.710,0.320,0.576,0.547,��쓌,12.2,��
2023/03/20,17:10,0.558,0.813,0.491,1.019,0.710,0.321,0.575,0.548,��쓌,10.5,��
2023/03/20,17:20,0.558,0.814,0.491,1.016,0.712,0.321,0.578,0.550,��쓌,10.7,��
2023/03/20,17:30,0.559,0.813,0.492,1.016,0.710,0.321,0.577,0.548,��쓌,9.8,��
2023/03/20,17:40,0.560,0.813,0.494,1.015,0.711,0.322,0.575,0.550,��,7.9,��
2023/03/20,17:50,0.562,0.817,0.495,1.017,0.710,0.320,0.577,0.549,��,7.6,��
2023/03/20,18:00,0.560,0.815,0.495,1.015,0.712,0.322,0.576,0.547,��,8.2,��
2023/03/20,18:10,0.560,0.814,0.494,1.016,0.715,0.321,0.576,0.547,��,7.7,��
2023/03/20,18:20,0.562,0.816,0.495,1.017,0.715,0.319,0.577,0.548,��,8.1,��
2023/03/20,18:30,0.560,0.816,0.495,1.019,0.713,0.322,0.577,0.549,��,8.2,��
2023/03/20,18:40,0.560,0.816,0.494,1.016,0.715,0.320,0.578,0.549,��,8.1,��
2023/03/20,18:50,0.561,0.816,0.495,1.017,0.714,0.320,0.577,0.548,��,7.4,��
2023/03/20,19:00,0.559,0.816,0.495,1.016,0.715,0.321,0.577,0.548,��,6.9,��
2023/03/20,19:10,0.561,0.817,0.494,1.016,0.715,0.321,0.576,0.549,��,7.0,��
2023/03/20,19:20,0.561,0.815,0.495,1.018,0.713,0.320,0.578,0.547,��,6.4,��
2023/03/20,19:30,0.561,0.815,0.494,1.018,0.715,0.320,0.578,0.548,��,6.8,��
2023/03/20,19:40,0.558,0.814,0.493,1.018,0.714,0.320,0.578,0.550,��,5.4,��
2023/03/20,19:50,0.562,0.815,0.494,1.015,0.713,0.321,0.577,0.547,��쐼,6.2,��
2023/03/20,20:00,0.560,0.815,0.494,1.019,0.715,0.320,0.577,0.547,��,6.0,��
2023/03/20,20:10,0.560,0.816,0.494,1.018,0.713,0.321,0.576,0.548,��쐼,6.6,��
2023/03/20,20:20,0.561,0.814,0.494,1.017,0.715,0.321,0.577,0.547,��,7.6,��
2023/03/20,20:30,0.561,0.814,0.496,1.017,0.713,0.320,0.575,0.549,��쐼,7.8,��
2023/03/20,20:40,0.561,0.814,0.495,1.017,0.714,0.320,0.579,0.549,��,8.9,��
2023/03/20,20:50,0.561,0.815,0.494,1.017,0.715,0.320,0.578,0.548,��쐼,8.0,��
2023/03/20,21:00,0.559,0.816,0.493,1.015,0.712,0.320,0.576,0.548,��,8.3,��
2023/03/20,21:10,0.559,0.815,0.495,1.018,0.713,0.321,0.577,0.547,��쐼,7.7,��
2023/03/20,21:20,0.559,0.816,0.494,1.017,0.714,0.322,0.577,0.549,��쐼,7.0,��
2023/03/20,21:30,0.560,0.814,0.493,1.019,0.715,0.321,0.576,0.547,��쐼,6.4,��
2023/03/20,21:40,0.562,0.816,0.493,1.019,0.714,0.320,0.576,0.547,��쐼,5.7,��
2023/03/20,21:50,0.560,0.813,0.495,1.018,0.714,0.321,0.576,0.548,��쐼,6.2,��
2023/03/20,22:00,0.562,0.814,0.494,1.018,0.713,0.321,0.576,0.547,��쐼,6.6,��
2023/03/20,22:10,0.560,0.816,0.493,1.016,0.714,0.320,0.576,0.547,��쐼,6.4,��
2023/03/20,22:20,0.560,0.815,0.494,1.017,0.713,0.320,0.577,0.549,��쐼,5.8,��
2023/03/20,22:30,0.559,0.814,0.494,1.017,0.714,0.320,0.575,0.548,��,5.9,��
2023/03/20,22:40,0.560,0.816,0.495,1.017,0.713,0.320,0.577,0.548,��,6.2,��
2023/03/20,22:50,0.560,0.814,0.494,1.018,0.713,0.320,0.577,0.548,��,6.2,��
2023/03/20,23:00,0.559,0.815,0.495,1.014,0.714,0.320,0.577,0.547,��쐼,5.0,��
2023/03/20,23:10,0.561,0.815,0.494,1.017,0.714,0.320,0.577,0.547,��쐼,5.4,��
2023/03/20,23:20,0.560,0.816,0.493,1.018,0.713,0.321,0.576,0.548,��쐼,5.1,��
2023/03/20,23:30,0.559,0.815,0.494,1.018,0.716,0.320,0.578,0.546,��쐼,5.6,��
2023/03/20,23:40,0.561,0.813,0.494,1.018,0.714,0.322,0.576,0.546,��쐼,5.5,��
2023/03/20,23:50,0.560,0.811,0.493,1.020,0.714,0.320,0.575,0.547,��쐼,4.5,��
